Starlink 11468

operational
NORAD ID: 62221 Int'l Des: 2024-231 Owner: SPXS Country: US Constellation: starlink
LEOCIRCULAR

Über Starlink 11468

Beschreibung wird geladen...

Live-Position

3D-Globus wird geladen...

Nächste Überflüge

Höhenverlauf

Altitude vs Time

uPlot chart will show altitude changes over time

Zweizeiliger Elementsatz

1 62221U 24231D 26036.63949765 .00263361 00000-0 20986-2 0 9999
2 62221 53.1560 259.5555 0001573 104.9302 255.1890 15.69845631 68378
Epoch: 5. Feb. 2026 • Age: 9 hours

Aktueller Status

Höhe 377.4 km
Geschwindigkeit 7.68 km/s
Subsatellitenpunkt -50.96°S, 51.92°E
Startdatum 5. Dez. 2024
Alter 1.1 years
Typ internet

Technische Details

Klassifizierung Payload
Masse 960.00 kg
Trockenmasse 910.00 kg
Gesamtmasse 960.00 kg
Länge 0.30 m
Durchmesser 4.10 m
Spannweite 29.00 m
Form Box + pan
Hersteller SPXS
Bus-Typ Starlink V2MD
Phasenstatus In Orbit
Besitzer/Staat SPXS/US

Große Konstellationen

Loading constellations...